����������;��������(kVARh)
2019-07-22 00:00;18,25
2019-07-22 00:15;15,5
2019-07-22 00:30;15,55
2019-07-22 00:45;17,3
2019-07-22 01:00;18,05
2019-07-22 01:15;16,4
2019-07-22 01:30;15,1
2019-07-22 01:45;15,4
2019-07-22 02:00;16,15
2019-07-22 02:15;16,25
2019-07-22 02:30;16,35
2019-07-22 02:45;17,6
2019-07-22 03:00;16,3
2019-07-22 03:15;16,7
2019-07-22 03:30;19,25
2019-07-22 03:45;18,2
2019-07-22 04:00;18,35
2019-07-22 04:15;19,45
2019-07-22 04:30;18,6
2019-07-22 04:45;18,75
2019-07-22 05:00;20,1
2019-07-22 05:15;24,9
2019-07-22 05:30;26,3
2019-07-22 05:45;26,95
2019-07-22 06:00;24,95
2019-07-22 06:15;25,95
2019-07-22 06:30;24,8
2019-07-22 06:45;23,7
2019-07-22 07:00;26,55
2019-07-22 07:15;29,8
2019-07-22 07:30;38,4
2019-07-22 07:45;37,45
2019-07-22 08:00;26,65
2019-07-22 08:15;30,75
2019-07-22 08:30;35,25
2019-07-22 08:45;46,35
2019-07-22 09:00;51,3
2019-07-22 09:15;51,65
2019-07-22 09:30;50,55
2019-07-22 09:45;57,75
2019-07-22 10:00;61,05
2019-07-22 10:15;62,05
2019-07-22 10:30;61,95
2019-07-22 10:45;57,25
2019-07-22 11:00;57,4
2019-07-22 11:15;60,1
2019-07-22 11:30;59
2019-07-22 11:45;56,6
2019-07-22 12:00;58,85
2019-07-22 12:15;61,25
2019-07-22 12:30;59,9
2019-07-22 12:45;56
2019-07-22 13:00;64,9
2019-07-22 13:15;56,8
2019-07-22 13:30;63,2
2019-07-22 13:45;66,95
2019-07-22 14:00;70,05
2019-07-22 14:15;63,1
2019-07-22 14:30;60,6
2019-07-22 14:45;69,4
2019-07-22 15:00;65,65
2019-07-22 15:15;64,1
2019-07-22 15:30;64,85
2019-07-22 15:45;54
2019-07-22 16:00;57,1
2019-07-22 16:15;53,15
2019-07-22 16:30;40,3
2019-07-22 16:45;39
2019-07-22 17:00;38
2019-07-22 17:15;32,85
2019-07-22 17:30;35,3
2019-07-22 17:45;29,65
2019-07-22 18:00;31,25
2019-07-22 18:15;32,95
2019-07-22 18:30;32,3
2019-07-22 18:45;32
2019-07-22 19:00;31,25
2019-07-22 19:15;31,75
2019-07-22 19:30;30,95
2019-07-22 19:45;30,7
2019-07-22 20:00;30,25
2019-07-22 20:15;30,35
2019-07-22 20:30;28,5
2019-07-22 20:45;29,15
2019-07-22 21:00;29,5
2019-07-22 21:15;29
2019-07-22 21:30;29,85
2019-07-22 21:45;31,2
2019-07-22 22:00;29,8
2019-07-22 22:15;18,2
2019-07-22 22:30;17,7
2019-07-22 22:45;17,5
2019-07-22 23:00;15,4
2019-07-22 23:15;13,8
2019-07-22 23:30;14,8
2019-07-22 23:45;15,7
2019-07-23 00:00;12,45
2019-07-23 00:15;13,2
2019-07-23 00:30;13,6
2019-07-23 00:45;13,45
2019-07-23 01:00;14,35
2019-07-23 01:15;14,3
2019-07-23 01:30;10,85
2019-07-23 01:45;12,2
2019-07-23 02:00;15,2
2019-07-23 02:15;14,55
2019-07-23 02:30;14,85
2019-07-23 02:45;15,25
2019-07-23 03:00;14,7
2019-07-23 03:15;16,55
2019-07-23 03:30;17,4
2019-07-23 03:45;18,1
2019-07-23 04:00;17,5
2019-07-23 04:15;17,5
2019-07-23 04:30;17,6
2019-07-23 04:45;17,7
2019-07-23 05:00;18,2
2019-07-23 05:15;19
2019-07-23 05:30;18,9
2019-07-23 05:45;19,15
2019-07-23 06:00;17,35
2019-07-23 06:15;17,5
2019-07-23 06:30;15,35
2019-07-23 06:45;15
2019-07-23 07:00;21,85
2019-07-23 07:15;20,05
2019-07-23 07:30;29,9
2019-07-23 07:45;26,5
2019-07-23 08:00;28,9
2019-07-23 08:15;29,7
2019-07-23 08:30;31,45
2019-07-23 08:45;37,85
2019-07-23 09:00;36,45
2019-07-23 09:15;48,1
2019-07-23 09:30;55,7
2019-07-23 09:45;55,3
2019-07-23 10:00;58,75
2019-07-23 10:15;63,95
2019-07-23 10:30;57,85
2019-07-23 10:45;57,4
2019-07-23 11:00;60,65
2019-07-23 11:15;58,2
2019-07-23 11:30;59
2019-07-23 11:45;57,75
2019-07-23 12:00;58,6
2019-07-23 12:15;57,3
2019-07-23 12:30;60
2019-07-23 12:45;59,3
2019-07-23 13:00;60,55
2019-07-23 13:15;58,4
2019-07-23 13:30;55,95
2019-07-23 13:45;55,45
2019-07-23 14:00;61,35
2019-07-23 14:15;69,4
2019-07-23 14:30;65,5
2019-07-23 14:45;65,7
2019-07-23 15:00;69,9
2019-07-23 15:15;59,15
2019-07-23 15:30;51,35
2019-07-23 15:45;60,1
2019-07-23 16:00;56,2
2019-07-23 16:15;46,45
2019-07-23 16:30;53
2019-07-23 16:45;46
2019-07-23 17:00;37,3
2019-07-23 17:15;43,45
2019-07-23 17:30;38,5
2019-07-23 17:45;32,9
2019-07-23 18:00;34,6
2019-07-23 18:15;35,55
2019-07-23 18:30;33,35
2019-07-23 18:45;32,7
2019-07-23 19:00;31,75
2019-07-23 19:15;31
2019-07-23 19:30;30,1
2019-07-23 19:45;32,25
2019-07-23 20:00;31,15
2019-07-23 20:15;32,7
2019-07-23 20:30;31,8
2019-07-23 20:45;30,7
2019-07-23 21:00;31,8
2019-07-23 21:15;32,5
2019-07-23 21:30;34,5
2019-07-23 21:45;37,15
2019-07-23 22:00;36,55
2019-07-23 22:15;37,05
2019-07-23 22:30;28,55
2019-07-23 22:45;21,7
2019-07-23 23:00;23,95
2019-07-23 23:15;23,45
2019-07-23 23:30;22,9
2019-07-23 23:45;17,6
2019-07-24 00:00;10,3
2019-07-24 00:15;10,65
2019-07-24 00:30;12,25
2019-07-24 00:45;11,7
2019-07-24 01:00;13,2
2019-07-24 01:15;10,95
2019-07-24 01:30;12,15
2019-07-24 01:45;13,2
2019-07-24 02:00;13,55
2019-07-24 02:15;13,8
2019-07-24 02:30;14,35
2019-07-24 02:45;13,6
2019-07-24 03:00;13,5
2019-07-24 03:15;14,05
2019-07-24 03:30;14,75
2019-07-24 03:45;16,3
2019-07-24 04:00;16,25
2019-07-24 04:15;16,25
2019-07-24 04:30;16,2
2019-07-24 04:45;15,6
2019-07-24 05:00;16,5
2019-07-24 05:15;16,35
2019-07-24 05:30;16,9
2019-07-24 05:45;16,4
2019-07-24 06:00;16,25
2019-07-24 06:15;15,1
2019-07-24 06:30;14,8
2019-07-24 06:45;15,4
2019-07-24 07:00;14,25
2019-07-24 07:15;17,9
2019-07-24 07:30;32,85
2019-07-24 07:45;27,5
2019-07-24 08:00;22,45
2019-07-24 08:15;36,6
2019-07-24 08:30;39,45
2019-07-24 08:45;45,7
2019-07-24 09:00;36,6
2019-07-24 09:15;39,9
2019-07-24 09:30;42,45
2019-07-24 09:45;48,05
2019-07-24 10:00;53,7
2019-07-24 10:15;59,7
2019-07-24 10:30;55,25
2019-07-24 10:45;56,5
2019-07-24 11:00;66,6
2019-07-24 11:15;67,85
2019-07-24 11:30;65,05
2019-07-24 11:45;71,3
2019-07-24 12:00;70,85
2019-07-24 12:15;68
2019-07-24 12:30;69,6
2019-07-24 12:45;64
2019-07-24 13:00;64,55
2019-07-24 13:15;65,3
2019-07-24 13:30;65,95
2019-07-24 13:45;61,9
2019-07-24 14:00;61,8
2019-07-24 14:15;65
2019-07-24 14:30;62,5
2019-07-24 14:45;60,7
2019-07-24 15:00;57,7
2019-07-24 15:15;54,35
2019-07-24 15:30;66,55
2019-07-24 15:45;56,25
2019-07-24 16:00;50,1
2019-07-24 16:15;58,8
2019-07-24 16:30;50,55
2019-07-24 16:45;43,7
2019-07-24 17:00;43,5
2019-07-24 17:15;35,75
2019-07-24 17:30;33,65
2019-07-24 17:45;30,7
2019-07-24 18:00;28
2019-07-24 18:15;26,8
2019-07-24 18:30;32,3
2019-07-24 18:45;30,4
2019-07-24 19:00;30,75
2019-07-24 19:15;31,3
2019-07-24 19:30;30,15
2019-07-24 19:45;30,05
2019-07-24 20:00;24,85
2019-07-24 20:15;20,05
2019-07-24 20:30;20,3
2019-07-24 20:45;19,35
2019-07-24 21:00;19,55
2019-07-24 21:15;19,15
2019-07-24 21:30;19,2
2019-07-24 21:45;21,5
2019-07-24 22:00;21,55
2019-07-24 22:15;21,35
2019-07-24 22:30;20,5
2019-07-24 22:45;18,3
2019-07-24 23:00;19,6
2019-07-24 23:15;18,4
2019-07-24 23:30;19,35
2019-07-24 23:45;18,3
2019-07-25 00:00;17,3
2019-07-25 00:15;19,35
2019-07-25 00:30;19,6
2019-07-25 00:45;20,5
2019-07-25 01:00;23,5
2019-07-25 01:15;17,25
2019-07-25 01:30;10,2
2019-07-25 01:45;11,85
2019-07-25 02:00;11,75
2019-07-25 02:15;12,5
2019-07-25 02:30;13,35
2019-07-25 02:45;14,25
2019-07-25 03:00;14,45
2019-07-25 03:15;14,95
2019-07-25 03:30;15,15
2019-07-25 03:45;15,55
2019-07-25 04:00;15,9
2019-07-25 04:15;16,65
2019-07-25 04:30;16,65
2019-07-25 04:45;17,45
2019-07-25 05:00;16,5
2019-07-25 05:15;17,25
2019-07-25 05:30;16,75
2019-07-25 05:45;17,65
2019-07-25 06:00;15,3
2019-07-25 06:15;12,9
2019-07-25 06:30;13,05
2019-07-25 06:45;15,55
2019-07-25 07:00;24,2
2019-07-25 07:15;26,1
2019-07-25 07:30;39,05
2019-07-25 07:45;36,6
2019-07-25 08:00;36,2
2019-07-25 08:15;43,4
2019-07-25 08:30;46,8
2019-07-25 08:45;49,8
2019-07-25 09:00;45,2
2019-07-25 09:15;52,3
2019-07-25 09:30;49,05
2019-07-25 09:45;50,65
2019-07-25 10:00;52,55
2019-07-25 10:15;61,1
2019-07-25 10:30;64,85
2019-07-25 10:45;55,7
2019-07-25 11:00;55,55
2019-07-25 11:15;60,55
2019-07-25 11:30;57,25
2019-07-25 11:45;63,95
2019-07-25 12:00;56,4
2019-07-25 12:15;53,65
2019-07-25 12:30;62,25
2019-07-25 12:45;57,3
2019-07-25 13:00;53,9
2019-07-25 13:15;60,05
2019-07-25 13:30;58,5
2019-07-25 13:45;54,2
2019-07-25 14:00;51,5
2019-07-25 14:15;52,95
2019-07-25 14:30;48,55
2019-07-25 14:45;51,35
2019-07-25 15:00;51,2
2019-07-25 15:15;48,5
2019-07-25 15:30;46,95
2019-07-25 15:45;47,35
2019-07-25 16:00;42,05
2019-07-25 16:15;41,6
2019-07-25 16:30;40,7
2019-07-25 16:45;37,15
2019-07-25 17:00;39,3
2019-07-25 17:15;35,5
2019-07-25 17:30;38,45
2019-07-25 17:45;34,6
2019-07-25 18:00;31,15
2019-07-25 18:15;28,25
2019-07-25 18:30;26,5
2019-07-25 18:45;25,55
2019-07-25 19:00;25,7
2019-07-25 19:15;24,9
2019-07-25 19:30;24,85
2019-07-25 19:45;25,3
2019-07-25 20:00;26,15
2019-07-25 20:15;27,45
2019-07-25 20:30;22,4
2019-07-25 20:45;19,35
2019-07-25 21:00;19,15
2019-07-25 21:15;19,95
2019-07-25 21:30;22,4
2019-07-25 21:45;23,3
2019-07-25 22:00;23,15
2019-07-25 22:15;20,6
2019-07-25 22:30;17,1
2019-07-25 22:45;17,05
2019-07-25 23:00;22,05
2019-07-25 23:15;20,95
2019-07-25 23:30;23,55
2019-07-25 23:45;26,7
2019-07-26 00:00;21,9
2019-07-26 00:15;18,05
2019-07-26 00:30;16,9
2019-07-26 00:45;18,4
2019-07-26 01:00;18,5
2019-07-26 01:15;18,35
2019-07-26 01:30;18,85
2019-07-26 01:45;20,6
2019-07-26 02:00;21,4
2019-07-26 02:15;21,55
2019-07-26 02:30;22,8
2019-07-26 02:45;23,3
2019-07-26 03:00;22,9
2019-07-26 03:15;23,1
2019-07-26 03:30;25,2
2019-07-26 03:45;20,45
2019-07-26 04:00;14,5
2019-07-26 04:15;15,3
2019-07-26 04:30;15,8
2019-07-26 04:45;14,55
2019-07-26 05:00;15
2019-07-26 05:15;16,55
2019-07-26 05:30;15,75
2019-07-26 05:45;15,85
2019-07-26 06:00;15,7
2019-07-26 06:15;14,75
2019-07-26 06:30;13,55
2019-07-26 06:45;12,95
2019-07-26 07:00;18,4
2019-07-26 07:15;21,65
2019-07-26 07:30;34,5
2019-07-26 07:45;42,2
2019-07-26 08:00;38,25
2019-07-26 08:15;43,55
2019-07-26 08:30;45,35
2019-07-26 08:45;45,95
2019-07-26 09:00;46,7
2019-07-26 09:15;45,3
2019-07-26 09:30;45,9
2019-07-26 09:45;47,45
2019-07-26 10:00;46,5
2019-07-26 10:15;46,75
2019-07-26 10:30;45,7
2019-07-26 10:45;48,7
2019-07-26 11:00;45,4
2019-07-26 11:15;48,9
2019-07-26 11:30;50,25
2019-07-26 11:45;60,05
2019-07-26 12:00;55,1
2019-07-26 12:15;59,8
2019-07-26 12:30;58,5
2019-07-26 12:45;58,85
2019-07-26 13:00;57,95
2019-07-26 13:15;57,7
2019-07-26 13:30;57,85
2019-07-26 13:45;55,35
2019-07-26 14:00;58,75
2019-07-26 14:15;59,3
2019-07-26 14:30;53,95
2019-07-26 14:45;56,65
2019-07-26 15:00;57,1
2019-07-26 15:15;52,75
2019-07-26 15:30;53,55
2019-07-26 15:45;46,05
2019-07-26 16:00;43,75
2019-07-26 16:15;39,6
2019-07-26 16:30;32,05
2019-07-26 16:45;37,75
2019-07-26 17:00;36,05
2019-07-26 17:15;32,45
2019-07-26 17:30;40,35
2019-07-26 17:45;38,35
2019-07-26 18:00;37,2
2019-07-26 18:15;35,9
2019-07-26 18:30;35,4
2019-07-26 18:45;33,45
2019-07-26 19:00;33,55
2019-07-26 19:15;34,5
2019-07-26 19:30;34,25
2019-07-26 19:45;35,85
2019-07-26 20:00;34,65
2019-07-26 20:15;36,6
2019-07-26 20:30;33,9
2019-07-26 20:45;35,4
2019-07-26 21:00;37,55
2019-07-26 21:15;36,55
2019-07-26 21:30;38
2019-07-26 21:45;39,8
2019-07-26 22:00;37,45
2019-07-26 22:15;37,05
2019-07-26 22:30;37,65
2019-07-26 22:45;39,35
2019-07-26 23:00;41,9
2019-07-26 23:15;34,75
2019-07-26 23:30;30,75
2019-07-26 23:45;31,85
2019-07-27 00:00;27,8
2019-07-27 00:15;19,8
2019-07-27 00:30;19,55
2019-07-27 00:45;18,8
2019-07-27 01:00;16,9
2019-07-27 01:15;18,3
2019-07-27 01:30;18,7
2019-07-27 01:45;19,2
2019-07-27 02:00;19,6
2019-07-27 02:15;17,8
2019-07-27 02:30;15,9
2019-07-27 02:45;18,65
2019-07-27 03:00;19,7
2019-07-27 03:15;20,4
2019-07-27 03:30;21,25
2019-07-27 03:45;21,6
2019-07-27 04:00;22,25
2019-07-27 04:15;21,85
2019-07-27 04:30;22,5
2019-07-27 04:45;22,1
2019-07-27 05:00;21,2
2019-07-27 05:15;22,15
2019-07-27 05:30;23,5
2019-07-27 05:45;22,2
2019-07-27 06:00;21,15
2019-07-27 06:15;21,3
2019-07-27 06:30;19,2
2019-07-27 06:45;16,15
2019-07-27 07:00;18,55
2019-07-27 07:15;16,5
2019-07-27 07:30;14,7
2019-07-27 07:45;14,4
2019-07-27 08:00;16
2019-07-27 08:15;16,2
2019-07-27 08:30;15,5
2019-07-27 08:45;14,65
2019-07-27 09:00;12,9
2019-07-27 09:15;11
2019-07-27 09:30;11,2
2019-07-27 09:45;9,9
2019-07-27 10:00;10,85
2019-07-27 10:15;9,5
2019-07-27 10:30;9,95
2019-07-27 10:45;8,05
2019-07-27 11:00;7,05
2019-07-27 11:15;14,65
2019-07-27 11:30;14,95
2019-07-27 11:45;15,2
2019-07-27 12:00;14,5
2019-07-27 12:15;14,85
2019-07-27 12:30;14,3
2019-07-27 12:45;14,3
2019-07-27 13:00;14,4
2019-07-27 13:15;14,1
2019-07-27 13:30;14,85
2019-07-27 13:45;14,3
2019-07-27 14:00;14,55
2019-07-27 14:15;14
2019-07-27 14:30;15,3
2019-07-27 14:45;17,15
2019-07-27 15:00;18,1
2019-07-27 15:15;18,25
2019-07-27 15:30;20
2019-07-27 15:45;18,5
2019-07-27 16:00;20,15
2019-07-27 16:15;20,55
2019-07-27 16:30;21,3
2019-07-27 16:45;19,7
2019-07-27 17:00;19,7
2019-07-27 17:15;20,1
2019-07-27 17:30;20,1
2019-07-27 17:45;18,6
2019-07-27 18:00;19,2
2019-07-27 18:15;18
2019-07-27 18:30;17,9
2019-07-27 18:45;14,45
2019-07-27 19:00;11,65
2019-07-27 19:15;11,9
2019-07-27 19:30;16,4
2019-07-27 19:45;18,5
2019-07-27 20:00;18,35
2019-07-27 20:15;19,65
2019-07-27 20:30;19,4
2019-07-27 20:45;20,2
2019-07-27 21:00;18,65
2019-07-27 21:15;17,35
2019-07-27 21:30;19
2019-07-27 21:45;18,1
2019-07-27 22:00;19,75
2019-07-27 22:15;16,9
2019-07-27 22:30;17,95
2019-07-27 22:45;18,55
2019-07-27 23:00;22,35
2019-07-27 23:15;21,55
2019-07-27 23:30;24,55
2019-07-27 23:45;27,1
2019-07-28 00:00;18,6
2019-07-28 00:15;17,85
2019-07-28 00:30;18,65
2019-07-28 00:45;19,85
2019-07-28 01:00;20,95
2019-07-28 01:15;20,3
2019-07-28 01:30;20,55
2019-07-28 01:45;22,75
2019-07-28 02:00;21,4
2019-07-28 02:15;22,65
2019-07-28 02:30;24,1
2019-07-28 02:45;20,6
2019-07-28 03:00;19,65
2019-07-28 03:15;21,55
2019-07-28 03:30;21,35
2019-07-28 03:45;22,6
2019-07-28 04:00;24,65
2019-07-28 04:15;24,1
2019-07-28 04:30;24,25
2019-07-28 04:45;25,2
2019-07-28 05:00;24,85
2019-07-28 05:15;24,05
2019-07-28 05:30;25
2019-07-28 05:45;24,15
2019-07-28 06:00;24,6
2019-07-28 06:15;24,45
2019-07-28 06:30;24,6
2019-07-28 06:45;25,3
2019-07-28 07:00;25,55
2019-07-28 07:15;15,25
2019-07-28 07:30;15,3
2019-07-28 07:45;14,95
2019-07-28 08:00;17,9
2019-07-28 08:15;17,85
2019-07-28 08:30;16,9
2019-07-28 08:45;16,5
2019-07-28 09:00;16,15
2019-07-28 09:15;13,85
2019-07-28 09:30;14,6
2019-07-28 09:45;13
2019-07-28 10:00;12,2
2019-07-28 10:15;10,5
2019-07-28 10:30;12,85
2019-07-28 10:45;11,25
2019-07-28 11:00;11,85
2019-07-28 11:15;10,85
2019-07-28 11:30;10,6
2019-07-28 11:45;9,9
2019-07-28 12:00;10,45
2019-07-28 12:15;10,2
2019-07-28 12:30;10,25
2019-07-28 12:45;12,4
2019-07-28 13:00;23,4
2019-07-28 13:15;26,25
2019-07-28 13:30;25,45
2019-07-28 13:45;25,15
2019-07-28 14:00;26,15
2019-07-28 14:15;24,6
2019-07-28 14:30;24,95
2019-07-28 14:45;25,95
2019-07-28 15:00;26,75
2019-07-28 15:15;26,25
2019-07-28 15:30;27,35
2019-07-28 15:45;27,25
2019-07-28 16:00;27,65
2019-07-28 16:15;28,85
2019-07-28 16:30;27,5
2019-07-28 16:45;27
2019-07-28 17:00;25,2
2019-07-28 17:15;26,3
2019-07-28 17:30;25,85
2019-07-28 17:45;26,7
2019-07-28 18:00;25,35
2019-07-28 18:15;25,3
2019-07-28 18:30;25,55
2019-07-28 18:45;25,75
2019-07-28 19:00;28,4
2019-07-28 19:15;29,9
2019-07-28 19:30;29,75
2019-07-28 19:45;31,35
2019-07-28 20:00;30,55
2019-07-28 20:15;31,2
2019-07-28 20:30;26
2019-07-28 20:45;25,2
2019-07-28 21:00;24,75
2019-07-28 21:15;22,35
2019-07-28 21:30;23,35
2019-07-28 21:45;24,5
2019-07-28 22:00;23,65
2019-07-28 22:15;22,4
2019-07-28 22:30;22,7
2019-07-28 22:45;23
2019-07-28 23:00;25,05
2019-07-28 23:15;16,35
2019-07-28 23:30;18,9
2019-07-28 23:45;19,3

